Wind_Speed
37 38 32 33 36 35 33 33 31 33 32 34 32 31 30 28 28 29 30 28 27 26 28 28 27 24 25 26 28 30 30 31 32 28 30 32 35 37 38 40 42 45 46 46
37 38 34 37 37 36 37 37 32 33 35 39 36 34 32 33 27 31 31 31 30 30 30 30 29 28 27 28 30 30 30 28 30 33 34 38 42 41 46 47 49 48 49 53
45 44 39 38 40 39 37 37 34 37 38 40 41 37 35 32 33 30 33 32 32 33 32 33 33 33 31 31 31 32 33 35 36 37 38 40 41 44 47 48 49 52 54 56
46 45 36 38 39 37 38 39 38 39 41 40 44 43 37 34 33 33 33 33 34 34 34 35 35 33 32 31 30 34 37 38 38 39 40 42 42 45 48 51 55 57 59 61
43 40 37 37 35 38 41 40 39 41 43 46 45 46 37 34 33 32 33 34 34 35 35 36 36 33 30 30 34 37 40 41 40 42 43 44 45 50 52 54 56 59 61 63
42 39 36 36 35 40 41 41 42 44 47 53 44 45 42 40 31 35 34 35 34 36 37 38 35 34 33 34 37 40 42 44 46 47 47 48 50 53 55 57 58 59 61 62
41 40 39 38 38 37 38 38 42 48 52 51 49 45 44 43 35 34 34 34 35 35 34 33 35 35 35 38 40 44 44 46 48 51 51 52 53 53 54 59 60 61 64 68
38 37 37 37 40 46 47 46 45 50 52 49 50 50 45 40 40 35 34 35 35 35 34 35 35 37 41 43 45 46 48 49 52 51 51 54 55 56 59 61 64 67 70 70
45 46 45 43 46 47 50 53 46 50 51 55 53 49 47 44 39 38 35 34 34 33 34 36 39 41 44 45 48 50 52 55 53 52 55 57 59 58 61 64 68 71 74 75
49 49 50 53 52 53 51 53 52 51 53 55 53 51 46 43 43 41 37 36 35 37 40 41 42 45 47 49 50 51 52 51 53 55 57 62 62 62 64 68 73 75 78 80
53 53 55 55 56 52 51 49 50 51 52 53 54 50 47 47 46 43 42 40 39 39 41 44 47 50 52 53 54 53 53 55 59 61 60 64 66 66 69 73 77 79 81 82
53 55 55 58 57 53 56 52 51 53 54 52 51 46 51 51 49 47 44 43 42 45 48 51 54 55 55 54 54 57 57 58 62 65 65 66 70 73 74 78 80 81 82 83
56 55 58 58 60 58 55 47 47 46 50 47 52 49 51 51 50 49 46 45 46 51 54 56 59 59 59 59 61 62 61 63 64 65 67 71 73 76 77 80 81 82 83 78
59 65 63 59 53 54 53 50 48 47 48 47 49 47 48 51 51 49 49 51 55 56 58 62 63 63 64 64 65 67 65 64 64 66 72 74 76 78 80 82 81 81 79 77
66 64 58 56 49 50 53 51 50 52 48 54 47 51 50 52 55 54 55 59 60 62 64 65 66 68 67 68 68 68 67 63 66 71 74 76 77 79 81 81 79 79 78 77
55 54 50 50 48 48 51 53 52 51 53 59 55 56 58 56 56 61 62 65 66 66 67 68 69 71 69 70 69 70 66 67 71 72 75 77 79 81 80 78 78 78 78 78
59 60 57 52 51 55 62 49 52 53 55 53 61 55 58 61 59 60 64 69 69 68 69 70 71 71 70 70 69 68 69 71 72 74 75 77 79 78 78 77 78 78 79 82
61 56 62 62 61 69 58 56 56 62 62 62 61 60 61 62 65 64 66 67 67 68 70 69 69 69 69 70 70 70 73 71 71 74 75 77 76 77 77 77 78 81 80 75
66 65 63 66 70 68 63 64 64 66 64 61 62 63 62 65 65 67 67 65 66 67 66 65 67 69 69 70 71 71 71 74 74 72 73 75 76 76 78 79 78 73 73 73
66 67 69 68 65 68 63 63 65 64 68 64 63 62 63 61 63 61 61 64 66 66 65 66 68 68 68 69 70 72 72 72 69 71 73 75 77 78 78 72 70 70 71 70
67 65 65 66 65 68 63 62 65 69 68 62 65 66 63 62 60 61 62 65 66 67 67 66 66 67 69 70 70 69 69 69 71 73 74 77 79 72 67 67 69 70 68 65
66 64 64 64 66 67 65 67 68 68 66 68 65 62 61 63 65 66 66 66 68 69 69 68 68 68 68 68 68 69 68 70 73 75 77 72 66 65 64 66 67 66 65 62
68 70 70 68 66 64 64 62 60 63 62 61 61 63 66 65 64 66 67 67 68 68 68 68 68 68 67 67 68 67 68 71 74 70 64 63 63 63 64 65 65 63 61 59
69 66 63 58 58 58 58 58 58 57 58 59 61 62 62 65 66 66 67 66 67 68 68 65 63 63 65 65 65 67 69 68 63 62 62 63 62 63 63 63 62 61 59 56
61 59 57 57 58 57 56 57 56 58 59 60 62 64 65 66 64 64 66 66 65 64 63 64 62 62 62 65 66 65 60 60 60 61 62 62 63 63 62 61 61 60 58 57
51 52 55 58 59 61 62 62 62 62 62 62 61 60 62 63 64 64 64 63 61 61 62 60 60 62 63 62 59 58 59 60 61 62 62 63 63 63 63 62 61 59 59 62
Wind_Direction
267 266 269 264 264 266 269 268 266 266 262 262 259 257 267 266 271 277 277 273 269 269 266 264 263 269 275 277 273 274 276 280 281 289 294 297 298 299 298 292 290 291 290 289
264 267 264 265 266 266 266 267 265 259 262 261 260 257 258 270 266 275 275 270 267 267 264 260 261 264 270 274 276 279 284 293 294 291 292 295 293 290 291 292 293 293 294 291
266 266 262 264 265 267 266 263 260 260 262 262 262 259 259 259 270 268 268 265 267 268 271 272 269 271 270 267 269 273 281 285 289 291 292 290 291 292 294 294 296 296 296 293
263 264 262 261 262 262 261 261 262 263 263 264 261 263 260 261 265 267 263 264 265 268 268 268 266 268 272 271 271 278 282 284 287 292 295 297 298 296 299 298 295 295 295 293
260 258 256 256 259 261 264 265 264 264 266 264 264 267 265 263 263 262 260 263 267 269 269 270 266 267 267 272 275 275 278 281 289 295 296 297 298 299 297 296 294 294 295 294
255 257 255 257 260 261 264 265 267 265 265 264 267 271 266 267 261 259 262 265 266 267 267 265 263 261 265 268 271 276 284 286 291 295 297 298 299 299 297 294 295 298 298 298
256 255 256 255 257 259 263 265 267 266 265 268 272 269 265 268 265 261 261 262 265 265 265 261 258 261 269 275 280 283 285 287 292 296 299 300 299 298 297 300 299 300 303 301
249 248 249 253 260 261 261 265 264 272 274 273 270 269 271 269 271 270 266 265 266 264 262 262 265 270 274 278 282 283 285 289 291 292 298 301 300 302 302 300 302 303 303 300
253 250 255 258 257 262 263 261 268 271 272 270 270 271 270 271 273 270 269 271 270 264 264 267 270 273 275 277 282 285 287 289 292 298 303 301 301 303 303 302 302 302 302 299
262 264 260 258 258 261 270 271 265 266 270 271 272 272 273 273 271 273 275 273 273 273 273 272 274 277 279 284 286 286 287 290 295 300 301 302 303 304 303 303 302 301 300 298
261 265 266 268 265 264 267 268 264 265 265 269 270 271 274 271 273 278 279 278 277 274 275 278 281 282 285 288 289 287 291 298 301 300 301 301 303 303 303 301 301 300 299 298
268 269 271 270 266 265 263 262 261 263 265 262 267 268 271 274 279 280 283 284 281 277 280 281 283 285 287 290 291 293 296 296 297 299 300 301 302 303 302 300 300 298 297 296
270 268 273 269 263 259 262 269 270 271 267 267 266 271 273 274 276 280 283 284 282 281 283 285 287 289 290 289 291 291 292 295 297 298 300 301 301 300 299 298 297 297 296 296
265 267 264 264 267 265 262 264 264 263 261 269 269 273 272 274 275 277 280 281 281 284 285 284 286 286 286 287 289 290 292 294 297 298 300 301 299 298 297 297 297 296 296 296
266 266 263 260 260 259 263 263 260 257 269 261 271 269 270 270 269 273 275 277 282 280 280 283 283 284 285 286 287 289 291 294 296 299 300 297 296 296 296 296 297 296 296 296
263 260 259 254 254 255 259 264 262 257 259 262 265 269 269 275 275 273 276 277 278 278 281 282 282 282 284 285 286 287 291 295 297 298 295 295 296 295 296 295 295 296 297 297
262 263 257 262 260 261 265 260 261 264 265 268 266 274 271 272 276 275 275 275 276 276 278 278 279 280 283 283 285 287 292 296 296 294 295 295 292 294 294 295 296 296 295 297
258 260 257 262 265 262 259 262 263 263 264 268 270 272 271 271 276 272 275 273 272 274 275 277 279 281 281 283 284 289 293 294 293 293 293 292 293 292 294 295 295 296 296 298
258 258 258 261 265 266 263 259 263 267 267 267 269 267 270 273 273 273 270 270 271 274 276 279 280 280 281 283 287 292 294 293 291 291 290 290 292 293 294 294 295 294 296 297
258 253 255 262 262 263 263 266 266 269 269 271 269 274 276 276 274 274 270 271 275 278 278 280 282 282 283 287 292 294 292 289 289 289 290 291 292 293 293 293 293 294 296 297
256 254 256 258 263 265 264 270 269 268 272 270 271 274 277 275 272 270 272 275 278 279 281 283 283 284 289 293 293 289 287 288 288 289 289 290 291 291 292 293 295 296 296 297
256 255 256 260 262 263 264 264 268 269 269 271 271 270 268 266 268 272 275 277 279 280 282 284 286 289 290 289 286 286 287 286 286 287 288 288 289 291 292 293 295 296 296 297
253 256 259 257 260 262 264 265 265 267 268 266 265 265 265 268 270 274 277 279 280 281 282 285 287 288 286 285 284 285 285 285 286 288 288 290 293 294 294 295 296 296 296 298
252 254 257 260 263 264 263 261 262 262 262 262 263 266 269 270 273 276 279 280 280 281 284 284 284 283 282 282 282 283 284 286 287 289 292 294 295 294 295 295 295 295 297 298
250 250 250 252 254 256 257 258 259 260 264 266 266 269 272 274 277 278 279 281 282 280 282 284 282 281 281 282 284 285 285 287 290 294 295 296 295 295 294 294 294 295 296 296
250 251 251 252 253 253 255 258 260 262 264 266 270 274 278 280 281 282 282 282 282 282 281 281 281 282 283 284 284 286 289 292 295 296 296 294 294 293 293 293 293 294 296 297
Height
5820 5820 5824 5821 5820 5821 5822 5823 5824 5822 5821 5820 5821 5823 5823 5824 5824 5824 5824 5824 5825 5825 5825 5824 5824 5824 5824 5824 5824 5824 5824 5824 5824 5822 5821 5820 5819 5817 5815 5813 5810 5807 5804 5799
5812 5813 5815 5814 5814 5815 5815 5815 5817 5814 5812 5811 5813 5814 5817 5815 5818 5817 5817 5817 5818 5817 5817 5817 5817 5817 5817 5817 5817 5818 5818 5817 5816 5815 5813 5812 5810 5808 5806 5803 5801 5797 5793 5791
5801 5803 5806 5807 5806 5807 5808 5807 5809 5806 5804 5804 5803 5806 5808 5810 5808 5810 5809 5810 5810 5810 5811 5811 5811 5811 5810 5809 5809 5809 5809 5808 5808 5807 5805 5803 5801 5799 5797 5794 5790 5787 5784 5780
5790 5792 5799 5797 5797 5798 5798 5798 5800 5799 5796 5796 5793 5793 5800 5802 5802 5802 5802 5802 5802 5803 5803 5803 5802 5801 5802 5802 5802 5802 5801 5800 5799 5798 5795 5793 5791 5788 5785 5782 5779 5774 5771 5767
5782 5785 5786 5788 5791 5789 5789 5790 5791 5790 5789 5785 5786 5785 5790 5794 5795 5793 5793 5794 5795 5795 5795 5795 5795 5794 5793 5794 5793 5793 5792 5791 5790 5787 5785 5783 5779 5777 5773 5770 5766 5762 5758 5754
5773 5776 5778 5780 5782 5780 5780 5781 5781 5780 5778 5771 5780 5780 5779 5782 5787 5785 5785 5785 5786 5786 5786 5785 5786 5786 5785 5784 5784 5784 5783 5781 5779 5776 5773 5770 5767 5764 5761 5758 5754 5749 5745 5740
5767 5767 5769 5770 5771 5772 5772 5772 5770 5767 5765 5767 5768 5769 5771 5771 5777 5777 5777 5777 5777 5777 5777 5777 5777 5776 5775 5774 5774 5773 5771 5770 5767 5764 5761 5756 5752 5749 5746 5743 5739 5734 5730 5725
5755 5758 5759 5763 5763 5761 5761 5762 5761 5756 5756 5758 5756 5755 5760 5764 5765 5767 5769 5769 5769 5768 5768 5768 5768 5767 5766 5765 5763 5762 5760 5757 5754 5751 5746 5742 5738 5734 5731 5727 5722 5717 5713 5707
5744 5745 5748 5750 5750 5750 5749 5748 5755 5748 5747 5743 5744 5747 5750 5753 5755 5755 5757 5759 5759 5760 5759 5759 5758 5756 5755 5754 5752 5749 5747 5745 5741 5735 5731 5728 5725 5719 5715 5711 5705 5700 5694 5688
5731 5732 5734 5736 5737 5739 5740 5739 5740 5739 5736 5733 5734 5735 5738 5742 5742 5743 5746 5747 5749 5749 5749 5748 5747 5746 5744 5741 5738 5735 5732 5728 5725 5720 5716 5713 5709 5705 5700 5694 5687 5681 5675 5669
5720 5722 5723 5722 5723 5729 5728 5725 5726 5726 5725 5723 5723 5726 5727 5727 5731 5734 5735 5736 5737 5737 5737 5736 5734 5732 5730 5728 5725 5721 5717 5713 5709 5705 5701 5698 5694 5689 5683 5676 5669 5662 5655 5649
5708 5705 5707 5708 5708 5712 5710 5713 5712 5712 5714 5714 5714 5716 5715 5716 5719 5721 5723 5726 5726 5726 5724 5723 5720 5718 5715 5712 5709 5706 5702 5698 5694 5691 5687 5682 5678 5672 5663 5656 5649 5643 5637 5630
5694 5691 5692 5693 5692 5693 5697 5705 5704 5704 5702 5704 5702 5705 5706 5708 5709 5710 5711 5712 5711 5710 5709 5707 5704 5702 5701 5698 5695 5693 5688 5682 5678 5675 5670 5666 5661 5653 5645 5638 5631 5624 5617 5611
5677 5676 5678 5680 5683 5683 5686 5689 5691 5689 5688 5692 5691 5695 5695 5697 5697 5698 5699 5699 5696 5695 5693 5691 5689 5687 5685 5683 5680 5676 5671 5667 5662 5659 5654 5649 5643 5635 5627 5620 5613 5606 5598 5593
5661 5661 5665 5669 5672 5671 5668 5672 5674 5674 5681 5674 5686 5681 5683 5684 5684 5686 5686 5684 5684 5681 5678 5677 5674 5672 5670 5667 5663 5659 5655 5651 5647 5644 5639 5632 5624 5615 5609 5602 5595 5588 5580 5573
5647 5648 5650 5652 5658 5658 5656 5659 5660 5661 5664 5663 5670 5669 5668 5673 5674 5672 5673 5670 5668 5666 5665 5662 5659 5658 5654 5651 5648 5645 5638 5634 5631 5627 5621 5613 5606 5597 5591 5584 5577 5569 5561 5553
5633 5635 5635 5636 5644 5641 5632 5648 5648 5650 5650 5653 5650 5661 5658 5654 5657 5657 5655 5652 5652 5651 5649 5646 5643 5641 5638 5635 5631 5628 5622 5619 5615 5610 5603 5594 5586 5579 5573 5565 5558 5549 5542 5536
5618 5620 5620 5621 5623 5611 5630 5633 5634 5631 5635 5635 5637 5642 5640 5640 5639 5640 5637 5636 5636 5635 5632 5630 5628 5625 5622 5619 5616 5611 5607 5603 5598 5590 5584 5574 5568 5562 5554 5547 5540 5532 5524 5517
5603 5605 5604 5601 5602 5603 5610 5614 5615 5613 5623 5620 5622 5620 5620 5621 5621 5622 5620 5620 5618 5616 5615 5614 5611 5608 5605 5602 5598 5594 5589 5584 5577 5571 5564 5557 5550 5543 5537 5530 5522 5514 5507 5499
5589 5589 5588 5587 5582 5578 5600 5595 5596 5595 5596 5604 5604 5602 5605 5605 5603 5607 5605 5601 5600 5600 5598 5595 5593 5590 5588 5584 5579 5576 5570 5563 5559 5552 5547 5540 5532 5526 5519 5511 5506 5498 5490 5481
5573 5572 5568 5572 5565 5565 5577 5579 5576 5575 5586 5586 5585 5587 5590 5591 5590 5588 5588 5586 5584 5582 5580 5578 5575 5572 5569 5566 5561 5556 5551 5545 5538 5534 5528 5522 5515 5508 5502 5495 5488 5479 5471 5464
5554 5554 5555 5556 5551 5550 5558 5560 5561 5563 5565 5568 5569 5572 5575 5574 5573 5572 5572 5570 5568 5566 5563 5560 5557 5554 5551 5547 5543 5538 5533 5526 5521 5515 5510 5503 5497 5491 5485 5478 5469 5461 5454 5447
5536 5539 5540 5542 5539 5539 5537 5544 5546 5546 5549 5552 5554 5555 5557 5558 5557 5555 5555 5555 5552 5548 5545 5543 5540 5536 5532 5527 5522 5518 5513 5507 5501 5496 5490 5485 5479 5473 5466 5459 5451 5444 5437 5432
5521 5523 5524 5526 5523 5524 5522 5525 5529 5532 5534 5536 5537 5539 5541 5541 5540 5540 5539 5537 5534 5531 5528 5525 5522 5518 5513 5508 5504 5499 5494 5488 5483 5477 5472 5467 5459 5453 5447 5440 5434 5428 5423 5418
5505 5507 5509 5508 5508 5510 5508 5507 5513 5516 5518 5520 5521 5523 5524 5525 5524 5523 5521 5519 5516 5513 5510 5507 5504 5499 5493 5487 5484 5479 5475 5470 5465 5459 5453 5447 5441 5435 5429 5423 5418 5414 5409 5404
5491 5491 5490 5489 5492 5491 5492 5493 5496 5500 5503 5505 5507 5509 5508 5508 5507 5506 5504 5501 5498 5494 5489 5487 5482 5477 5473 5468 5464 5460 5456 5451 5446 5440 5435 5430 5424 5419 5413 5408 5404 5399 5394 5389